• In Belarus
  • List of Countries
  • For 7 days
  • Water Temperature
  • Satellite Maps
  • Weather Map
  • Weather Widgets
  • user-avatar
    Login

    Hourly Weather Abovyan

    Today, 16 January, Wednesday

    Time Temperature Precipitation Wind Pressure Humidity
    00:00 0°C° 0 mm 3 mps 668 mmHg 75%
    01:00 0°C° 0 mm 3 mps 668 mmHg 75%
    02:00 -1°C° 0 mm 3 mps 667 mmHg 75%
    03:00 -1°C° 0 mm 2 mps 667 mmHg 77%
    04:00 -1°C° 0 mm 2 mps 667 mmHg 77%
    05:00 -1°C° 0 mm 3 mps 667 mmHg 77%
    06:00 -1°C° 0 mm 3 mps 667 mmHg 77%
    07:00 -1°C° 0 mm 3 mps 667 mmHg 75%
    08:00 0°C° 0 mm 3 mps 667 mmHg 72%
    09:00 +1°C° 0 mm 3 mps 667 mmHg 69%
    10:00 +2°C° 0 mm 3 mps 667 mmHg 65%
    11:00 +3°C° 0 mm 3 mps 666 mmHg 61%
    12:00 +4°C° 0 mm 3 mps 666 mmHg 57%
    13:00 +4°C° 0 mm 3 mps 665 mmHg 56%
    14:00 +4°C° 0 mm 3 mps 665 mmHg 55%
    15:00 +4°C° 0 mm 3 mps 664 mmHg 53%
    16:00 +3°C° 0 mm 3 mps 664 mmHg 55%
    17:00 +1°C° 0 mm 3 mps 664 mmHg 57%
    18:00 0°C° 0 mm 3 mps 664 mmHg 59%
    19:00 0°C° 0 mm 3 mps 664 mmHg 60%
    20:00 0°C° 0 mm 3 mps 663 mmHg 60%
    21:00 -1°C° 0 mm 2 mps 663 mmHg 60%
    22:00 -1°C° 0 mm 2 mps 663 mmHg 61%
    23:00 -1°C° 0 mm 2 mps 663 mmHg 61%

    Tomorrow, 17 January, Thursday

    Time Temperature Precipitation Wind Pressure Humidity
    00:00 -1°C° 0 mm 2 mps 662 mmHg 62%
    01:00 -1°C° 0 mm 2 mps 662 mmHg 62%
    02:00 -1°C° 0 mm 2 mps 661 mmHg 61%
    03:00 -1°C° 0 mm 2 mps 661 mmHg 61%
    04:00 -1°C° 0.1 mm 2 mps 661 mmHg 61%
    05:00 -1°C° 0.1 mm 2 mps 661 mmHg 62%
    06:00 -1°C° 0.1 mm 2 mps 661 mmHg 62%
    07:00 +1°C° 0.1 mm 1 mps 661 mmHg 61%
    08:00 +2°C° 0.1 mm 1 mps 662 mmHg 59%
    09:00 +2°C° 0.1 mm 1 mps 662 mmHg 58%
    10:00 +3°C° 0.2 mm 1 mps 662 mmHg 57%
    11:00 +3°C° 0.2 mm 2 mps 662 mmHg 57%
    12:00 +3°C° 0.2 mm 2 mps 663 mmHg 56%
    13:00 +3°C° 0.2 mm 2 mps 663 mmHg 58%
    14:00 +2°C° 0.2 mm 3 mps 663 mmHg 60%
    15:00 +2°C° 0.2 mm 3 mps 663 mmHg 62%
    16:00 +1°C° 0.2 mm 3 mps 664 mmHg 63%
    17:00 0°C° 0.2 mm 3 mps 665 mmHg 64%
    18:00 0°C° 0.2 mm 3 mps 666 mmHg 65%
    19:00 -1°C° 0.2 mm 3 mps 666 mmHg 64%
    20:00 -1°C° 0.2 mm 3 mps 667 mmHg 64%
    21:00 -2°C° 0.2 mm 3 mps 667 mmHg 64%
    22:00 -2°C° 0.1 mm 3 mps 668 mmHg 64%
    23:00 -4°C° 0.1 mm 3 mps 668 mmHg 64%

    Day after tomorrow, 18 January, Friday

    Time Temperature Precipitation Wind Pressure Humidity
    00:00 -3°C° 0.1 mm 2 mps 669 mmHg 64%
    01:00 -3°C° 0.1 mm 2 mps 669 mmHg 64%
    02:00 -4°C° 0.1 mm 2 mps 670 mmHg 63%
    03:00 -4°C° 0.1 mm 2 mps 670 mmHg 63%
    04:00 -4°C° 0.1 mm 2 mps 670 mmHg 63%
    05:00 -4°C° 0.1 mm 2 mps 671 mmHg 62%
    06:00 -4°C° 0.1 mm 2 mps 671 mmHg 62%
    07:00 -2°C° 0 mm 1 mps 671 mmHg 60%
    08:00 -1°C° 0 mm 1 mps 672 mmHg 58%
    09:00 -1°C° 0 mm 1 mps 673 mmHg 56%
    10:00 0°C° 0 mm 1 mps 672 mmHg 54%
    11:00 -1°C° 0 mm 2 mps 672 mmHg 52%
    12:00 +1°C° 0 mm 2 mps 672 mmHg 50%
    13:00 +1°C° 0 mm 2 mps 672 mmHg 50%
    14:00 +2°C° 0 mm 1 mps 672 mmHg 50%
    15:00 +2°C° 0 mm 1 mps 671 mmHg 50%
    16:00 +1°C° 0 mm 1 mps 672 mmHg 52%
    17:00 0°C° 0 mm 1 mps 672 mmHg 55%
    18:00 -3°C° 0 mm 0 mps 672 mmHg 58%
    19:00 -2°C° 0 mm 1 mps 673 mmHg 57%
    20:00 -2°C° 0 mm 1 mps 673 mmHg 56%
    21:00 -3°C° 0 mm 1 mps 673 mmHg 56%
    22:00 -3°C° 0 mm 1 mps 673 mmHg 56%
    23:00 -3°C° 0 mm 1 mps 673 mmHg 56%

    19 January, Saturday

    Time Temperature Precipitation Wind Pressure Humidity
    00:00 -4°C° 0 mm 1 mps 673 mmHg 55%
    01:00 -4°C° 0 mm 1 mps 673 mmHg 55%
    02:00 -4°C° 0 mm 1 mps 673 mmHg 55%
    03:00 -4°C° 0 mm 1 mps 673 mmHg 54%
    04:00 -4°C° 0 mm 1 mps 673 mmHg 54%
    05:00 -4°C° 0 mm 1 mps 673 mmHg 53%
    06:00 -4°C° 0 mm 1 mps 673 mmHg 52%
    07:00 -4°C° 0 mm 1 mps 673 mmHg 49%
    08:00 -3°C° 0 mm 1 mps 673 mmHg 46%
    09:00 -2°C° 0 mm 1 mps 674 mmHg 43%
    10:00 -1°C° 0 mm 1 mps 673 mmHg 41%
    11:00 0°C° 0 mm 1 mps 673 mmHg 39%
    12:00 +2°C° 0 mm 1 mps 673 mmHg 37%
    13:00 +2°C° 0 mm 1 mps 672 mmHg 37%
    14:00 +2°C° 0 mm 1 mps 672 mmHg 37%
    15:00 +2°C° 0 mm 1 mps 672 mmHg 37%
    16:00 +1°C° 0 mm 1 mps 672 mmHg 38%
    17:00 0°C° 0 mm 1 mps 672 mmHg 38%
    18:00 -2°C° 0 mm 1 mps 672 mmHg 39%
    19:00 -2°C° 0 mm 1 mps 673 mmHg 38%
    20:00 -3°C° 0 mm 1 mps 673 mmHg 37%
    21:00 -3°C° 0 mm 1 mps 673 mmHg 37%
    22:00 -3°C° 0 mm 1 mps 673 mmHg 37%
    23:00 -3°C° 0 mm 1 mps 673 mmHg 37%

    20 January, Sunday

    Time Temperature Precipitation Wind Pressure Humidity
    00:00 -3°C° 0 mm 1 mps 673 mmHg 37%
    01:00 -3°C° 0 mm 1 mps 673 mmHg 37%
    02:00 -3°C° 0 mm 1 mps 673 mmHg 38%
    03:00 -3°C° 0 mm 1 mps 673 mmHg 38%
    04:00 -3°C° 0 mm 1 mps 673 mmHg 39%
    05:00 -3°C° 0 mm 1 mps 673 mmHg 40%
    06:00 -2°C° 0 mm 1 mps 673 mmHg 42%
    07:00 -2°C° 0 mm 1 mps 674 mmHg 41%
    08:00 -1°C° 0 mm 1 mps 674 mmHg 41%
    09:00 0°C° 0 mm 1 mps 674 mmHg 41%
    10:00 +1°C° 0 mm 1 mps 674 mmHg 40%
    11:00 +1°C° 0 mm 1 mps 674 mmHg 39%
    12:00 +2°C° 0 mm 1 mps 673 mmHg 38%
    13:00 +2°C° 0 mm 1 mps 673 mmHg 38%
    14:00 +3°C° 0 mm 1 mps 673 mmHg 38%
    15:00 +3°C° 0 mm 1 mps 672 mmHg 38%
    16:00 +2°C° 0 mm 1 mps 673 mmHg 40%
    17:00 0°C° 0 mm 1 mps 673 mmHg 42%
    18:00 -1°C° 0 mm 1 mps 673 mmHg 44%
    19:00 -1°C° 0 mm 1 mps 673 mmHg 43%
    20:00 -2°C° 0 mm 1 mps 674 mmHg 43%
    21:00 -2°C° 0 mm 1 mps 674 mmHg 43%
    22:00 -2°C° 0 mm 1 mps 674 mmHg 43%
    23:00 -3°C° 0 mm 1 mps 674 mmHg 43%

    21 January, Monday

    Time Temperature Precipitation Wind Pressure Humidity
    00:00 -3°C° 0 mm 1 mps 674 mmHg 43%
    01:00 -3°C° 0 mm 1 mps 674 mmHg 43%
    02:00 -3°C° 0 mm 1 mps 674 mmHg 43%
    03:00 -4°C° 0 mm 1 mps 673 mmHg 44%
    04:00 -4°C° 0 mm 1 mps 673 mmHg 44%
    05:00 -4°C° 0 mm 1 mps 673 mmHg 45%
    06:00 -4°C° 0 mm 1 mps 673 mmHg 45%
    07:00 -3°C° 0 mm 1 mps 673 mmHg 45%
    08:00 -2°C° 0 mm 1 mps 674 mmHg 44%
    09:00 -2°C° 0 mm 1 mps 674 mmHg 43%
    10:00 -1°C° 0 mm 1 mps 673 mmHg 42%
    11:00 0°C° 0 mm 1 mps 673 mmHg 40%
    12:00 +1°C° 0 mm 1 mps 672 mmHg 38%
    13:00 +2°C° 0 mm 1 mps 672 mmHg 38%
    14:00 +2°C° 0 mm 1 mps 672 mmHg 38%
    15:00 +2°C° 0 mm 1 mps 671 mmHg 37%
    16:00 +1°C° 0 mm 1 mps 671 mmHg 38%
    17:00 -1°C° 0 mm 1 mps 672 mmHg 38%
    18:00 -2°C° 0 mm 1 mps 672 mmHg 38%
    19:00 -2°C° 0 mm 1 mps 672 mmHg 39%
    20:00 -2°C° 0 mm 1 mps 672 mmHg 39%
    21:00 -3°C° 0 mm 1 mps 672 mmHg 39%
    22:00 -3°C° 0 mm 1 mps 672 mmHg 40%
    23:00 -3°C° 0 mm 1 mps 672 mmHg 41%
    Show more